Showing default

GONETS M 21, 47228

Orbit data source: Space-Track

GONETS M 21, 47228 is a payload satellite owned by Gonets (CIS) in LEO that was launched on Thu, 03 Dec 2020 UTC via a SOYUZ-2-1B launch vehicle from the Plesetsk Missile And Space Complex (PKMTR). Payload-class satellites include a variety of spacecraft equipped with specific instruments for various scientific and technological missions. These include communications satellites like Starlink; space stations such as the ISS; scientific satellites like the Hubble; Earth observation satellites from companies like Planet Labs, Umbra, and HawkEye 360; GPS; miniature CubeSats for education and research; and military/defense satellites.

Loading next visibility...
Identifier
47228, 2020-091B
Orbit
LEO
Country
Flag of CISCIS
Related business
Manufacturer
Resehetnev ISS
Mission
Operational Commercial Communications
Bus & Motor
STRELA-3M, Unknown motor
Mass
225 kg wet, 225 kg dry
Launch date (UTC)
2020-12-03 (6 years ago)
Launch vehicle
SOYUZ-2-1B
Launch site
Plesetsk Missile And Space Complex (PKMTR)
Object type
Payload
Rocket body
Debris
Shape & HBR
Cyl + 1 Ant, 3.5 m
Radar Cross Section
1.798 m², Large (>1 m²)

Expand to show TLE details & history
Last TLE update: 1 day ago

TLE from 1 day ago
0 GONETS M 21
1 47228U 20091B   26172.48774431  .00000027  00000-0  12648-3 0  9994
2 47228  82.4976 298.4669 0014992 181.4169 178.6870 12.42886843251607
Epoch: 2026-06-21T11:42Z
TLE epoch observation values (Epoch: 2026-06-21T11:42:21.108Z)
Latitude
-0.00008°
Longitude
-146.80836°
Altitude
1,508.89 km
Speed
7.105 km/s
True Right ascension
19h 53m 52s
True Declination
0° 00' 00"
Sunlit
Object was in full shadow at epoch
Visualization orbit readout
Latitude
Unknown
Longitude
Unknown
Altitude
Unknown
Speed
Unknown
Apparent Right ascension
Unknown
Apparent Declination
Unknown
Sunlit
N/A
Visualization observer readout
Local Sidereal Time
23:08:09
Azimuth
Unknown
Elevation
Unknown
Doppler factor
Unknown
Orbital elements
Apogee altitude
1,503.539 km
Perigee altitude
1,479.942 km
Semi-major axis
7,869.878 km
Eccentricity
0.0015
Inclination
82.4976°
RAAN
298.4669°
Arg. of periapsis
181.4169°
True anomaly
178.69093°
Mean anomaly
178.687°
Eccentric anomaly
178.68897°
Mean motion
3.10879 °/min
Orbital period
115.8 mins
BSTAR
0.00012648
Loading maneuver chart data...
Computing Atmospheric mass density...
Loading historical data...
Loading historical data...
Loading historical data...
Loading historical data...
Loading historical data...
Loading historical data...
Loading historical data...
Other satellites on launch #91 in the year 2020 (2020-12-03 UTC)

Documentation

Showing up to 5 results
|